カタログに戻る

DELTA 1 DEB

運用中SSO
NORAD 42560·DEBRIS·🇺🇸 United States

打ち上げ Jul 23, 1972 から Vandenberg Space Force Base

Loading…

次のパス (今後24時間)

TLE

最新Source: Space-Track

元期: Sep 14, 2026, 03:02 UTC

1 42560U 72058JT  26257.12692521  .00000256  00000-0  75014-4 0  9993
2 42560  97.8933 214.6619 0093820 273.4224 148.0278 14.49115542676604

AllMySatでDELTA 1 DEBをリアルタイム追跡

Download on the App Store